Temp
61 61 61 61 60 59 59 59 59 59 59 59 57 57 56 57 59 61 62 58 57 56 56 57 58 57 56 54 56 57 57 56 56 56 55 55 55 55 55 56 55 55 54 54 53 53 53 52 52 52 51 51 50 49 49 48 46 45 44 43 43 42 43 44 44 43 43 44 44
59 59 60 61 60 59 58 59 59 60 60 62 62 61 60 61 63 63 61 57 56 57 58 58 57 57 56 56 57 58 57 56 55 55 54 54 55 55 55 55 55 54 54 53 53 52 52 52 51 51 50 49 48 47 46 45 44 44 43 42 42 43 43 43 45 45 45 44 44
59 59 59 59 58 58 59 60 59 60 61 63 64 64 63 63 64 63 61 57 56 58 59 59 57 57 56 57 57 57 56 55 55 54 54 55 55 55 55 55 54 54 53 53 52 52 51 51 51 50 49 47 46 45 45 44 44 44 43 42 43 45 46 46 46 45 44 44 43
59 59 58 58 58 58 59 61 60 61 62 64 63 63 63 63 63 62 60 57 57 58 59 59 58 57 56 57 57 56 56 55 55 54 54 54 54 54 54 53 53 53 52 52 51 51 50 49 49 48 47 46 45 45 44 44 44 44 43 43 43 45 46 47 46 46 45 45 43
59 59 60 59 58 59 59 60 61 61 62 63 63 63 63 63 62 61 60 61 59 59 59 58 58 57 57 57 56 56 55 55 55 54 54 53 53 53 53 52 52 52 52 52 51 50 49 48 48 47 46 45 45 45 44 44 44 45 45 46 46 44 44 44 45 45 45 43 41
59 58 58 58 58 58 59 60 59 60 61 63 62 62 62 62 61 60 60 61 60 59 58 57 57 57 57 57 56 56 55 54 54 54 53 52 52 52 51 51 52 52 52 52 51 50 49 49 48 47 46 46 45 45 46 47 47 47 47 47 45 43 42 42 43 43 41 40 38
59 58 58 57 58 58 58 59 59 60 61 62 62 62 62 60 59 58 59 60 59 59 58 58 57 57 57 56 56 55 55 54 54 53 53 52 52 51 52 53 53 53 53 52 52 51 50 49 48 48 48 48 47 47 47 46 45 44 43 43 42 41 40 39 39 39 37 36 35
58 58 58 58 58 58 58 59 60 61 61 63 62 62 61 59 58 58 58 60 60 60 59 59 58 57 57 57 56 55 55 54 54 54 53 53 53 53 53 53 53 53 52 52 51 49 48 47 47 47 47 47 46 45 44 42 41 40 39 39 39 39 39 38 37 36 35 34 34
58 58 58 58 58 58 58 59 60 60 61 62 62 62 61 59 58 58 58 59 59 59 59 59 58 58 57 57 56 55 55 55 54 54 54 54 54 54 53 53 52 52 51 49 48 47 46 47 46 45 45 45 44 44 42 40 39 39 38 37 37 37 36 37 35 34 33 33 33
58 59 59 59 59 59 59 59 59 60 61 62 62 62 61 60 60 59 59 59 59 59 59 58 57 57 57 56 56 55 55 55 55 55 54 54 54 53 52 52 51 50 49 48 47 47 46 46 45 44 44 43 42 41 40 39 38 37 37 37 36 35 35 34 33 33 32 33 32
59 60 61 61 61 61 60 59 59 61 62 63 62 62 61 61 60 60 60 60 59 58 57 57 57 56 56 56 56 56 55 55 54 54 53 52 52 51 50 49 49 49 49 48 48 47 46 45 43 42 41 41 40 38 37 37 37 36 35 35 35 34 34 32 32 32 32 32 31
60 61 62 63 62 62 61 60 61 62 63 63 62 61 61 60 60 60 59 59 57 57 56 57 57 56 56 56 56 55 55 54 52 51 50 49 48 48 47 47 48 48 48 48 46 46 45 43 41 40 39 38 38 38 37 36 36 35 34 34 34 34 33 31 31 31 31 30 30
61 62 63 63 62 61 61 61 62 63 63 63 62 61 60 59 59 59 59 57 57 56 56 56 56 56 56 56 56 55 54 53 51 50 49 48 48 48 47 48 48 47 46 45 44 43 42 41 39 38 37 37 37 37 36 35 35 35 34 33 33 32 31 30 30 30 30 30 30
62 63 63 63 62 61 61 62 63 63 62 61 60 60 60 59 59 59 58 57 56 56 56 56 56 56 56 56 55 54 54 52 50 49 48 48 48 48 48 48 46 45 44 43 42 41 40 40 39 38 37 36 36 35 35 35 34 34 33 33 32 31 29 29 28 29 29 29 29
62 62 63 62 62 62 62 62 62 62 60 59 59 59 59 59 58 58 58 57 56 56 56 56 56 56 56 56 55 53 52 50 49 48 48 48 48 48 47 45 44 43 42 41 40 40 39 38 38 37 36 36 35 34 34 34 33 33 32 31 30 29 28 28 27 27 28 28 28
61 62 62 62 62 62 62 61 61 60 58 58 57 58 58 58 58 57 57 56 56 56 56 56 55 55 55 55 53 51 50 48 48 48 48 48 47 46 44 43 41 40 40 39 39 39 38 38 37 36 36 35 34 33 33 32 31 31 30 29 28 27 27 27 27 26 26 27 28
60 60 61 62 61 61 60 59 59 58 57 56 56 57 57 57 57 57 56 56 56 55 55 55 55 54 53 53 52 51 49 49 49 49 48 46 45 43 42 40 40 39 39 38 38 37 37 36 36 35 35 34 33 32 31 31 30 29 28 28 27 26 27 28 27 26 26 26 27
59 60 61 61 60 58 57 57 57 56 56 55 55 56 56 56 56 56 56 55 55 54 53 53 53 52 51 50 50 50 49 49 48 47 45 44 42 41 40 39 38 38 37 37 37 36 35 35 34 34 33 32 32 31 30 30 29 28 27 27 26 26 26 26 26 25 25 26 27
58 59 59 59 58 57 56 56 55 55 55 55 55 55 55 55 55 55 55 55 54 53 51 51 50 50 50 49 49 49 48 46 45 44 43 41 40 39 38 37 37 36 36 36 36 35 34 34 33 33 32 32 31 30 30 29 28 27 27 26 25 25 25 25 25 25 25 25 26
58 58 57 57 56 56 55 55 55 55 54 55 54 54 54 54 54 53 53 53 53 52 51 49 49 49 49 48 48 47 46 45 43 42 41 39 38 37 37 36 35 35 35 34 34 34 33 33 32 32 31 31 30 29 28 28 27 27 26 26 25 24 24 24 24 24 25 25 25
57 57 56 56 55 55 55 55 54 54 54 54 53 53 53 53 52 52 51 52 52 51 51 50 49 48 47 47 46 45 45 44 43 41 40 38 37 36 36 36 35 34 34 33 33 32 32 32 31 31 30 30 29 28 28 27 27 26 25 26 25 24 24 24 24 25 25 25 26
56 56 55 55 55 55 54 54 54 54 53 53 52 52 51 51 51 51 51 51 52 51 50 49 48 47 46 45 44 44 43 43 42 41 40 39 37 36 36 35 35 34 33 32 31 31 30 30 29 29 29 29 28 28 28 27 26 26 25 25 25 24 24 24 25 25 26 26 26
55 55 54 54 54 54 54 53 53 53 52 52 51 51 50 50 51 51 51 51 50 49 48 47 46 46 45 44 43 43 42 42 41 40 39 37 36 35 35 35 34 33 32 32 31 30 29 29 28 27 27 28 27 27 27 27 27 26 25 25 25 25 24 24 25 25 26 26 27
53 54 54 54 53 53 53 52 52 51 51 50 50 50 49 49 50 50 50 49 49 48 47 46 45 44 44 43 42 42 42 41 40 38 37 36 35 34 34 35 34 33 33 33 33 33 32 31 29 28 28 28 28 27 27 27 26 26 25 25 25 25 25 25 25 25 26 26 27
52 53 53 53 52 52 52 51 51 50 50 49 49 49 48 48 49 49 48 47 47 46 45 44 44 43 43 42 42 42 41 40 39 37 36 35 35 34 34 35 34 35 36 38 40 40 39 36 33 31 29 29 29 28 28 27 26 26 26 26 25 25 25 25 25 25 25 24 25
52 52 51 51 51 51 51 50 49 49 49 48 48 48 48 48 48 48 47 46 45 44 44 43 43 43 43 41 41 40 40 39 38 37 36 36 35 34 34 35 34 35 37 42 43 43 42 41 38 35 31 29 29 29 29 27 26 26 26 26 26 26 25 25 25 25 25 25 24
51 51 50 50 50 50 49 49 49 48 48 47 47 47 47 47 48 47 46 45 44 44 43 43 43 43 42 41 39 39 38 38 37 36 36 36 35 34 34 34 34 36 39 44 45 44 43 42 41 38 34 30 30 29 29 28 26 26 26 25 25 25 25 24 24 24 25 25 25
50 50 49 49 49 48 48 48 48 47 47 47 46 46 46 46 46 45 44 44 43 43 43 42 42 42 41 40 38 37 36 36 36 35 35 35 34 34 34 34 34 38 43 47 46 45 44 43 42 40 37 33 30 29 28 27 27 26 26 25 24 24 23 23 24 24 24 24 24
49 49 49 48 48 47 47 47 47 47 46 46 46 45 45 44 44 44 43 43 42 42 42 41 41 41 39 38 37 36 35 35 35 35 34 34 33 33 33 34 35 40 45 48 46 45 45 43 42 41 39 36 32 30 29 28 27 26 26 25 24 23 23 22 22 23 23 23 24
49 48 48 47 47 47 47 46 46 46 46 46 45 44 44 43 43 42 42 41 41 41 41 41 40 39 37 37 36 36 35 34 34 34 34 34 34 34 34 35 36 40 44 48 47 46 45 44 42 41 40 38 34 31 28 27 26 25 25 25 23 22 22 22 22 22 22 23 23
48 48 47 47 46 46 46 46 46 46 45 45 44 44 43 43 42 41 41 40 40 40 40 39 38 37 36 36 36 35 35 34 34 34 34 34 35 34 33 34 35 40 44 48 47 46 45 44 43 41 40 38 34 31 28 27 26 25 24 24 23 22 22 22 22 22 22 22 23
47 47 47 46 46 45 45 45 45 45 45 44 44 43 42 41 41 40 40 40 40 39 38 37 36 36 36 35 35 35 34 34 33 33 33 33 33 32 33 34 35 39 44 47 46 46 45 44 43 41 40 38 34 30 26 26 25 24 23 22 22 22 22 22 22 22 22 22 22
47 47 46 46 45 45 45 45 45 44 44 43 43 42 41 40 40 39 39 39 39 38 37 36 36 36 35 35 35 35 34 34 34 34 34 33 32 33 33 34 35 40 46 47 46 46 45 44 43 41 40 37 33 28 25 25 24 23 23 21 21 20 20 20 20 21 21 22 22
46 46 46 45 45 44 44 44 44 44 43 42 41 41 40 40 39 39 39 39 38 38 37 37 36 36 36 35 35 35 35 35 33 32 31 30 31 32 33 33 34 41 47 47 46 45 44 43 42 41 39 36 31 27 24 24 23 23 22 21 21 20 20 20 19 19 20 21 22
46 46 45 45 44 44 44 43 43 43 42 41 40 40 39 39 39 38 39 39 38 37 37 36 36 36 35 35 35 34 34 33 31 30 30 30 31 32 33 33 35 41 47 46 46 45 44 43 41 40 37 34 30 26 24 23 23 22 22 21 21 21 21 21 20 19 18 19 21
46 46 45 44 44 44 43 43 42 42 41 40 40 39 39 38 38 39 39 39 38 37 36 36 35 35 35 34 34 33 33 31 31 30 30 31 31 31 31 32 35 40 45 46 45 44 44 42 41 39 36 32 28 26 25 24 23 22 21 21 21 21 21 21 21 20 19 18 20
46 46 45 44 44 43 43 42 42 41 40 40 39 39 38 38 38 38 39 39 37 36 35 35 35 35 34 33 33 32 31 31 31 31 31 32 31 30 30 31 32 38 43 45 45 44 43 42 40 37 34 29 26 25 24 24 23 22 21 21 20 20 20 21 21 21 21 21 25
46 46 45 44 43 43 43 42 42 41 40 39 39 39 38 38 38 38 38 39 37 36 35 35 34 34 34 33 32 31 31 31 32 31 31 30 30 30 30 31 32 36 41 44 44 43 42 41 39 36 33 28 25 24 24 24 22 21 21 20 20 19 19 20 20 21 22 24 33
46 46 45 44 43 43 42 42 41 41 40 39 39 38 38 38 38 38 38 38 37 36 35 34 34 34 34 34 33 32 31 31 31 31 31 29 31 32 32 31 31 35 39 43 43 43 42 41 39 36 33 28 25 24 24 23 21 20 20 20 19 19 19 19 19 20 21 23 33
46 45 45 44 43 43 42 41 41 40 40 39 39 38 38 38 38 38 38 37 36 36 35 34 34 34 34 35 33 31 30 29 30 30 31 31 33 35 35 31 30 33 38 42 42 42 41 40 39 36 33 28 24 24 24 23 21 20 19 19 19 19 19 19 19 19 20 21 26
46 45 45 44 43 43 42 41 40 40 40 39 39 39 39 39 38 37 37 36 36 35 35 34 34 34 34 35 33 32 30 29 29 29 31 32 34 35 34 30 29 31 35 39 41 41 41 40 38 36 33 28 24 23 23 23 22 20 18 18 18 19 19 19 20 20 20 20 21
MSLP
1014.60 1014.76 1014.92 1015.08 1015.24 1015.44 1015.56 1015.68 1015.80 1015.92 1016.08 1016.32 1016.48 1016.60 1016.76 1016.88 1016.92 1017.00 1017.12 1017.28 1017.44 1017.56 1017.72 1017.80 1017.88 1018.00 1018.16 1018.28 1018.32 1018.36 1018.48 1018.60 1018.76 1018.88 1019.00 1019.20 1019.32 1019.48 1019.52 1019.60 1019.76 1019.92 1020.12 1020.28 1020.36 1020.44 1020.52 1020.60 1020.76 1020.92 1021.04 1021.16 1021.28 1021.36 1021.40 1021.48 1021.60 1021.76 1021.88 1022.04 1022.12 1022.16 1022.20 1022.28 1022.32 1022.40 1022.48 1022.48 1022.48
1014.60 1014.72 1014.88 1015.04 1015.20 1015.36 1015.56 1015.72 1015.80 1015.92 1016.04 1016.16 1016.28 1016.44 1016.56 1016.72 1016.80 1016.92 1017.08 1017.28 1017.36 1017.48 1017.64 1017.80 1017.92 1018.08 1018.20 1018.32 1018.32 1018.44 1018.56 1018.72 1018.88 1019.04 1019.16 1019.28 1019.40 1019.48 1019.60 1019.76 1019.88 1020.04 1020.20 1020.24 1020.32 1020.44 1020.60 1020.72 1020.84 1021.00 1021.20 1021.28 1021.36 1021.48 1021.52 1021.60 1021.72 1021.88 1022.04 1022.12 1022.20 1022.20 1022.28 1022.36 1022.40 1022.40 1022.48 1022.52 1022.52
1014.52 1014.68 1014.84 1015.04 1015.20 1015.36 1015.56 1015.72 1015.84 1015.92 1016.04 1016.04 1016.12 1016.28 1016.44 1016.56 1016.64 1016.80 1017.04 1017.24 1017.36 1017.48 1017.64 1017.84 1017.96 1018.12 1018.24 1018.32 1018.40 1018.52 1018.64 1018.80 1018.96 1019.12 1019.28 1019.36 1019.48 1019.60 1019.76 1019.84 1020.00 1020.08 1020.16 1020.24 1020.36 1020.52 1020.72 1020.84 1020.92 1021.08 1021.28 1021.40 1021.48 1021.56 1021.68 1021.76 1021.84 1021.92 1022.04 1022.20 1022.24 1022.24 1022.28 1022.32 1022.36 1022.44 1022.48 1022.56 1022.64
1014.48 1014.64 1014.84 1015.04 1015.20 1015.32 1015.48 1015.60 1015.76 1015.84 1015.88 1015.96 1016.04 1016.20 1016.32 1016.48 1016.56 1016.76 1017.00 1017.24 1017.36 1017.48 1017.60 1017.80 1018.00 1018.16 1018.28 1018.40 1018.52 1018.64 1018.80 1018.92 1019.04 1019.20 1019.32 1019.52 1019.60 1019.76 1019.88 1019.96 1020.04 1020.16 1020.24 1020.32 1020.52 1020.68 1020.84 1020.96 1021.08 1021.20 1021.32 1021.44 1021.52 1021.64 1021.76 1021.88 1021.88 1022.00 1022.16 1022.28 1022.32 1022.36 1022.40 1022.44 1022.52 1022.56 1022.60 1022.76 1022.88
1014.48 1014.60 1014.76 1014.92 1015.08 1015.20 1015.32 1015.48 1015.60 1015.72 1015.80 1015.88 1016.04 1016.20 1016.32 1016.48 1016.60 1016.84 1017.04 1017.24 1017.44 1017.56 1017.68 1017.76 1017.96 1018.20 1018.32 1018.48 1018.64 1018.80 1018.92 1019.04 1019.12 1019.28 1019.44 1019.60 1019.76 1019.88 1019.92 1020.04 1020.12 1020.24 1020.36 1020.48 1020.64 1020.84 1021.00 1021.12 1021.20 1021.32 1021.44 1021.56 1021.64 1021.76 1021.84 1021.88 1022.00 1022.16 1022.28 1022.44 1022.52 1022.60 1022.68 1022.72 1022.76 1022.76 1022.84 1022.96 1023.04
1014.44 1014.56 1014.68 1014.84 1014.96 1015.08 1015.20 1015.32 1015.48 1015.60 1015.72 1015.88 1016.04 1016.20 1016.36 1016.52 1016.72 1016.92 1017.12 1017.32 1017.48 1017.64 1017.76 1017.84 1018.00 1018.20 1018.36 1018.52 1018.68 1018.84 1019.00 1019.12 1019.24 1019.40 1019.60 1019.76 1019.88 1020.04 1020.08 1020.16 1020.24 1020.36 1020.48 1020.64 1020.84 1021.00 1021.12 1021.24 1021.32 1021.48 1021.60 1021.76 1021.88 1021.96 1022.00 1022.00 1022.12 1022.28 1022.44 1022.64 1022.80 1022.88 1022.92 1022.92 1022.96 1023.04 1023.12 1023.20 1023.24
1014.32 1014.48 1014.68 1014.84 1014.96 1015.04 1015.16 1015.28 1015.36 1015.52 1015.64 1015.84 1016.04 1016.20 1016.36 1016.60 1016.76 1016.96 1017.16 1017.32 1017.52 1017.68 1017.80 1017.88 1018.04 1018.20 1018.40 1018.56 1018.68 1018.84 1019.04 1019.20 1019.36 1019.56 1019.72 1019.88 1020.04 1020.12 1020.20 1020.28 1020.36 1020.48 1020.68 1020.84 1021.00 1021.16 1021.24 1021.36 1021.52 1021.64 1021.76 1021.88 1022.04 1022.08 1022.12 1022.16 1022.32 1022.48 1022.72 1022.92 1023.04 1023.12 1023.20 1023.20 1023.32 1023.32 1023.36 1023.40 1023.48
1014.24 1014.40 1014.60 1014.76 1014.88 1015.00 1015.12 1015.24 1015.36 1015.56 1015.72 1015.84 1016.04 1016.20 1016.36 1016.64 1016.84 1017.04 1017.20 1017.32 1017.56 1017.72 1017.84 1017.96 1018.08 1018.20 1018.32 1018.52 1018.76 1018.92 1019.12 1019.32 1019.48 1019.68 1019.88 1020.00 1020.12 1020.20 1020.32 1020.40 1020.52 1020.68 1020.84 1021.00 1021.16 1021.32 1021.48 1021.56 1021.76 1021.88 1021.96 1022.04 1022.24 1022.36 1022.48 1022.56 1022.60 1022.72 1022.96 1023.20 1023.32 1023.36 1023.40 1023.48 1023.48 1023.52 1023.52 1023.56 1023.60
1014.28 1014.40 1014.52 1014.68 1014.80 1014.96 1015.08 1015.20 1015.40 1015.60 1015.76 1015.88 1016.04 1016.20 1016.36 1016.64 1016.88 1017.04 1017.20 1017.32 1017.56 1017.76 1017.92 1018.04 1018.20 1018.32 1018.44 1018.60 1018.84 1019.04 1019.24 1019.44 1019.60 1019.80 1019.92 1020.04 1020.20 1020.32 1020.48 1020.60 1020.76 1020.92 1021.08 1021.24 1021.32 1021.48 1021.60 1021.76 1021.92 1022.04 1022.16 1022.28 1022.44 1022.60 1022.68 1022.76 1022.76 1022.92 1023.16 1023.36 1023.52 1023.60 1023.60 1023.64 1023.64 1023.64 1023.64 1023.68 1023.76
1014.28 1014.44 1014.56 1014.72 1014.84 1014.96 1015.08 1015.24 1015.40 1015.56 1015.72 1015.88 1016.04 1016.20 1016.40 1016.64 1016.84 1017.04 1017.20 1017.32 1017.52 1017.80 1018.04 1018.20 1018.32 1018.44 1018.60 1018.80 1019.00 1019.20 1019.32 1019.52 1019.72 1019.88 1020.04 1020.20 1020.32 1020.48 1020.68 1020.84 1020.96 1021.12 1021.28 1021.44 1021.52 1021.60 1021.76 1021.88 1022.12 1022.28 1022.40 1022.48 1022.64 1022.76 1022.88 1022.92 1022.96 1023.12 1023.32 1023.52 1023.60 1023.72 1023.76 1023.84 1023.84 1023.80 1023.80 1023.84 1023.88
1014.20 1014.32 1014.48 1014.68 1014.84 1015.00 1015.16 1015.32 1015.48 1015.56 1015.72 1015.92 1016.12 1016.32 1016.48 1016.64 1016.84 1017.00 1017.16 1017.32 1017.60 1017.88 1018.08 1018.24 1018.40 1018.56 1018.76 1018.96 1019.16 1019.32 1019.48 1019.64 1019.84 1020.04 1020.20 1020.36 1020.52 1020.68 1020.88 1021.04 1021.16 1021.28 1021.40 1021.56 1021.64 1021.76 1021.88 1022.08 1022.32 1022.48 1022.64 1022.76 1022.88 1023.00 1023.04 1023.04 1023.12 1023.32 1023.52 1023.68 1023.72 1023.76 1023.88 1024.00 1024.00 1023.96 1023.96 1024.04 1024.04
1014.16 1014.28 1014.44 1014.60 1014.84 1015.04 1015.20 1015.40 1015.52 1015.60 1015.76 1016.00 1016.20 1016.44 1016.60 1016.76 1016.92 1017.04 1017.24 1017.48 1017.76 1018.04 1018.24 1018.36 1018.48 1018.60 1018.80 1019.04 1019.24 1019.44 1019.60 1019.84 1020.04 1020.24 1020.48 1020.64 1020.80 1020.92 1021.08 1021.20 1021.32 1021.48 1021.60 1021.76 1021.80 1021.92 1022.04 1022.28 1022.48 1022.64 1022.84 1022.96 1023.04 1023.12 1023.20 1023.20 1023.32 1023.48 1023.68 1023.80 1023.84 1023.92 1024.04 1024.20 1024.20 1024.20 1024.20 1024.20 1024.16
1014.04 1014.24 1014.44 1014.60 1014.84 1015.04 1015.24 1015.36 1015.48 1015.64 1015.84 1016.08 1016.32 1016.56 1016.76 1016.92 1017.04 1017.16 1017.36 1017.64 1017.92 1018.20 1018.44 1018.56 1018.60 1018.76 1018.92 1019.12 1019.32 1019.56 1019.76 1020.04 1020.20 1020.40 1020.60 1020.80 1020.96 1021.12 1021.28 1021.44 1021.56 1021.68 1021.84 1021.96 1022.04 1022.12 1022.32 1022.48 1022.60 1022.80 1023.00 1023.12 1023.20 1023.28 1023.32 1023.36 1023.48 1023.64 1023.80 1023.92 1024.04 1024.20 1024.32 1024.40 1024.40 1024.32 1024.32 1024.28 1024.24
1014.00 1014.20 1014.44 1014.64 1014.92 1015.08 1015.28 1015.40 1015.52 1015.72 1015.96 1016.24 1016.48 1016.72 1016.92 1017.12 1017.20 1017.32 1017.48 1017.80 1018.08 1018.32 1018.52 1018.68 1018.80 1018.92 1019.08 1019.24 1019.48 1019.68 1019.88 1020.16 1020.32 1020.52 1020.72 1020.92 1021.04 1021.24 1021.44 1021.60 1021.76 1021.88 1022.04 1022.20 1022.28 1022.36 1022.48 1022.64 1022.76 1022.92 1023.08 1023.32 1023.44 1023.48 1023.56 1023.60 1023.68 1023.80 1024.00 1024.16 1024.32 1024.44 1024.48 1024.52 1024.52 1024.48 1024.40 1024.36 1024.36
1014.04 1014.20 1014.44 1014.68 1014.92 1015.12 1015.28 1015.44 1015.60 1015.88 1016.20 1016.44 1016.64 1016.84 1017.04 1017.28 1017.44 1017.52 1017.64 1017.88 1018.20 1018.48 1018.60 1018.80 1019.04 1019.20 1019.32 1019.48 1019.64 1019.88 1020.08 1020.28 1020.48 1020.64 1020.84 1021.04 1021.20 1021.44 1021.64 1021.88 1022.00 1022.12 1022.24 1022.36 1022.48 1022.60 1022.72 1022.88 1023.00 1023.12 1023.24 1023.44 1023.60 1023.72 1023.76 1023.88 1023.96 1024.08 1024.20 1024.36 1024.48 1024.56 1024.64 1024.64 1024.64 1024.60 1024.56 1024.56 1024.60
1014.08 1014.28 1014.48 1014.68 1014.92 1015.12 1015.32 1015.52 1015.76 1016.08 1016.40 1016.60 1016.80 1016.96 1017.20 1017.40 1017.56 1017.64 1017.76 1018.04 1018.32 1018.60 1018.76 1018.92 1019.20 1019.40 1019.60 1019.80 1019.96 1020.12 1020.32 1020.52 1020.64 1020.76 1020.92 1021.20 1021.44 1021.64 1021.88 1022.04 1022.20 1022.32 1022.44 1022.56 1022.72 1022.84 1023.00 1023.08 1023.20 1023.32 1023.44 1023.60 1023.76 1023.88 1024.04 1024.16 1024.24 1024.36 1024.48 1024.56 1024.60 1024.68 1024.76 1024.76 1024.76 1024.76 1024.76 1024.72 1024.72
1014.16 1014.36 1014.56 1014.76 1014.96 1015.20 1015.44 1015.68 1015.96 1016.28 1016.56 1016.76 1016.92 1017.08 1017.28 1017.48 1017.68 1017.76 1017.88 1018.08 1018.40 1018.68 1018.92 1019.12 1019.32 1019.56 1019.80 1020.04 1020.20 1020.32 1020.52 1020.68 1020.80 1020.96 1021.16 1021.44 1021.64 1021.88 1022.08 1022.28 1022.40 1022.48 1022.60 1022.72 1022.92 1023.08 1023.24 1023.36 1023.48 1023.56 1023.68 1023.80 1023.96 1024.12 1024.24 1024.36 1024.48 1024.60 1024.68 1024.76 1024.80 1024.84 1024.88 1024.84 1024.88 1024.88 1024.88 1024.84 1024.84
1014.24 1014.44 1014.60 1014.80 1015.04 1015.28 1015.56 1015.80 1016.08 1016.40 1016.64 1016.84 1017.04 1017.20 1017.40 1017.60 1017.80 1017.88 1018.04 1018.16 1018.44 1018.76 1019.04 1019.32 1019.56 1019.76 1020.00 1020.20 1020.36 1020.52 1020.72 1020.92 1021.08 1021.28 1021.48 1021.64 1021.88 1022.04 1022.28 1022.48 1022.60 1022.72 1022.76 1022.92 1023.08 1023.28 1023.44 1023.60 1023.68 1023.76 1023.88 1024.04 1024.20 1024.32 1024.48 1024.52 1024.64 1024.76 1024.84 1024.92 1024.96 1024.96 1025.00 1024.96 1024.96 1024.96 1024.92 1024.92 1024.92
1014.32 1014.48 1014.68 1014.92 1015.20 1015.44 1015.68 1015.92 1016.20 1016.48 1016.72 1016.88 1017.08 1017.28 1017.52 1017.76 1017.92 1018.04 1018.20 1018.40 1018.60 1018.88 1019.16 1019.48 1019.76 1020.00 1020.20 1020.32 1020.56 1020.76 1021.00 1021.24 1021.44 1021.60 1021.76 1021.92 1022.08 1022.24 1022.44 1022.64 1022.80 1022.92 1023.04 1023.16 1023.28 1023.48 1023.60 1023.76 1023.88 1023.96 1024.08 1024.20 1024.36 1024.48 1024.60 1024.72 1024.80 1024.92 1025.00 1025.04 1025.08 1025.12 1025.12 1025.12 1025.08 1025.04 1025.04 1025.00 1024.96
1014.36 1014.56 1014.76 1015.00 1015.32 1015.56 1015.80 1016.04 1016.28 1016.52 1016.76 1016.96 1017.20 1017.48 1017.76 1017.96 1018.08 1018.20 1018.40 1018.68 1018.92 1019.12 1019.32 1019.56 1019.84 1020.16 1020.36 1020.60 1020.76 1021.04 1021.28 1021.48 1021.68 1021.84 1022.04 1022.20 1022.32 1022.48 1022.64 1022.80 1023.00 1023.12 1023.24 1023.36 1023.48 1023.64 1023.76 1023.88 1024.04 1024.12 1024.24 1024.36 1024.52 1024.64 1024.76 1024.88 1024.96 1025.04 1025.12 1025.20 1025.20 1025.24 1025.24 1025.20 1025.20 1025.16 1025.08 1025.04 1025.04
1014.44 1014.60 1014.84 1015.04 1015.36 1015.64 1015.88 1016.12 1016.32 1016.60 1016.84 1017.12 1017.36 1017.64 1017.96 1018.20 1018.32 1018.48 1018.64 1018.92 1019.16 1019.32 1019.52 1019.76 1020.04 1020.32 1020.60 1020.80 1021.04 1021.24 1021.48 1021.76 1021.88 1022.04 1022.20 1022.40 1022.60 1022.76 1022.92 1023.00 1023.16 1023.32 1023.48 1023.60 1023.68 1023.80 1023.92 1024.04 1024.20 1024.32 1024.40 1024.52 1024.64 1024.76 1024.92 1025.00 1025.08 1025.20 1025.24 1025.28 1025.32 1025.32 1025.32 1025.28 1025.24 1025.20 1025.16 1025.08 1025.04
1014.56 1014.76 1014.92 1015.16 1015.44 1015.76 1016.04 1016.28 1016.48 1016.76 1017.00 1017.32 1017.56 1017.84 1018.12 1018.32 1018.56 1018.72 1018.92 1019.08 1019.32 1019.56 1019.80 1020.04 1020.28 1020.52 1020.76 1020.96 1021.20 1021.40 1021.64 1021.88 1022.08 1022.24 1022.40 1022.60 1022.80 1022.96 1023.08 1023.20 1023.32 1023.44 1023.60 1023.76 1023.88 1024.00 1024.12 1024.24 1024.32 1024.44 1024.56 1024.68 1024.84 1024.92 1025.00 1025.08 1025.20 1025.28 1025.36 1025.40 1025.44 1025.40 1025.36 1025.36 1025.32 1025.28 1025.20 1025.20 1025.12
1014.68 1014.88 1015.04 1015.32 1015.56 1015.88 1016.20 1016.44 1016.68 1016.92 1017.20 1017.48 1017.76 1018.04 1018.28 1018.52 1018.72 1018.92 1019.12 1019.32 1019.56 1019.84 1020.12 1020.40 1020.60 1020.80 1021.00 1021.20 1021.32 1021.52 1021.76 1022.00 1022.20 1022.44 1022.60 1022.80 1023.00 1023.20 1023.28 1023.32 1023.44 1023.60 1023.76 1023.92 1024.04 1024.12 1024.24 1024.40 1024.52 1024.60 1024.72 1024.88 1025.00 1025.04 1025.12 1025.20 1025.28 1025.36 1025.44 1025.48 1025.52 1025.48 1025.48 1025.48 1025.44 1025.40 1025.32 1025.32 1025.28
1014.80 1015.00 1015.20 1015.48 1015.76 1016.04 1016.32 1016.60 1016.88 1017.12 1017.40 1017.68 1017.96 1018.20 1018.40 1018.64 1018.88 1019.12 1019.36 1019.60 1019.84 1020.12 1020.36 1020.64 1020.92 1021.12 1021.28 1021.44 1021.60 1021.68 1021.84 1022.04 1022.32 1022.60 1022.80 1023.04 1023.20 1023.32 1023.40 1023.48 1023.60 1023.72 1023.88 1024.04 1024.12 1024.20 1024.32 1024.48 1024.64 1024.76 1024.88 1024.96 1025.12 1025.20 1025.28 1025.32 1025.40 1025.48 1025.56 1025.60 1025.60 1025.60 1025.60 1025.60 1025.56 1025.56 1025.52 1025.48 1025.48
1014.92 1015.12 1015.36 1015.64 1015.96 1016.20 1016.48 1016.76 1017.04 1017.32 1017.60 1017.88 1018.12 1018.32 1018.56 1018.80 1019.04 1019.28 1019.56 1019.84 1020.12 1020.36 1020.60 1020.92 1021.12 1021.32 1021.48 1021.64 1021.76 1021.88 1022.00 1022.20 1022.40 1022.64 1022.88 1023.12 1023.24 1023.36 1023.48 1023.60 1023.68 1023.76 1023.88 1023.96 1024.00 1024.08 1024.20 1024.44 1024.64 1024.80 1024.96 1025.08 1025.20 1025.32 1025.40 1025.48 1025.56 1025.60 1025.64 1025.64 1025.68 1025.72 1025.76 1025.76 1025.72 1025.72 1025.72 1025.72 1025.68
1015.04 1015.24 1015.52 1015.80 1016.08 1016.36 1016.64 1016.92 1017.20 1017.48 1017.72 1018.00 1018.24 1018.48 1018.72 1018.92 1019.20 1019.44 1019.76 1020.08 1020.40 1020.64 1020.84 1021.04 1021.32 1021.48 1021.64 1021.80 1021.96 1022.08 1022.20 1022.40 1022.52 1022.72 1022.92 1023.12 1023.32 1023.44 1023.56 1023.64 1023.72 1023.80 1023.88 1023.88 1023.92 1024.04 1024.20 1024.44 1024.64 1024.84 1025.04 1025.20 1025.28 1025.40 1025.52 1025.64 1025.72 1025.72 1025.76 1025.76 1025.76 1025.80 1025.88 1025.88 1025.88 1025.88 1025.88 1025.88 1025.88
1015.16 1015.44 1015.72 1015.96 1016.24 1016.56 1016.84 1017.08 1017.32 1017.60 1017.88 1018.12 1018.36 1018.60 1018.84 1019.04 1019.28 1019.60 1019.88 1020.24 1020.56 1020.80 1021.04 1021.20 1021.44 1021.60 1021.80 1021.96 1022.12 1022.28 1022.48 1022.60 1022.76 1022.84 1022.96 1023.12 1023.28 1023.44 1023.56 1023.64 1023.72 1023.76 1023.80 1023.84 1023.92 1024.08 1024.28 1024.48 1024.64 1024.88 1025.08 1025.24 1025.36 1025.52 1025.64 1025.76 1025.84 1025.84 1025.88 1025.88 1025.88 1025.92 1025.96 1026.04 1026.04 1026.04 1026.04 1026.00 1025.96
1015.32 1015.60 1015.88 1016.16 1016.44 1016.76 1017.00 1017.24 1017.48 1017.76 1018.00 1018.20 1018.48 1018.72 1018.92 1019.20 1019.48 1019.76 1020.04 1020.40 1020.68 1020.92 1021.16 1021.44 1021.60 1021.76 1021.96 1022.16 1022.32 1022.48 1022.60 1022.76 1022.88 1023.00 1023.08 1023.20 1023.28 1023.44 1023.56 1023.64 1023.68 1023.68 1023.72 1023.80 1023.96 1024.16 1024.32 1024.52 1024.72 1024.92 1025.12 1025.32 1025.48 1025.60 1025.76 1025.84 1025.88 1025.96 1026.00 1026.04 1026.04 1026.04 1026.08 1026.16 1026.16 1026.16 1026.16 1026.16 1026.08
1015.40 1015.68 1015.96 1016.32 1016.60 1016.92 1017.16 1017.36 1017.60 1017.84 1018.08 1018.32 1018.56 1018.80 1019.04 1019.32 1019.60 1019.88 1020.20 1020.48 1020.76 1021.00 1021.28 1021.52 1021.76 1021.92 1022.12 1022.32 1022.48 1022.64 1022.76 1022.92 1023.00 1023.08 1023.20 1023.24 1023.32 1023.48 1023.52 1023.60 1023.60 1023.64 1023.68 1023.76 1023.96 1024.20 1024.36 1024.60 1024.76 1024.96 1025.16 1025.36 1025.60 1025.72 1025.80 1025.92 1026.00 1026.04 1026.08 1026.12 1026.16 1026.20 1026.20 1026.24 1026.24 1026.24 1026.24 1026.24 1026.20
1015.48 1015.76 1016.04 1016.40 1016.72 1017.04 1017.28 1017.48 1017.72 1017.92 1018.20 1018.48 1018.72 1018.96 1019.24 1019.52 1019.76 1020.04 1020.32 1020.60 1020.84 1021.04 1021.32 1021.56 1021.76 1022.04 1022.28 1022.48 1022.60 1022.76 1022.92 1023.04 1023.08 1023.16 1023.20 1023.32 1023.44 1023.52 1023.56 1023.60 1023.60 1023.64 1023.68 1023.80 1024.00 1024.20 1024.44 1024.64 1024.84 1025.04 1025.20 1025.44 1025.64 1025.80 1025.92 1026.00 1026.04 1026.12 1026.20 1026.20 1026.24 1026.24 1026.28 1026.32 1026.32 1026.32 1026.36 1026.32 1026.28
1015.60 1015.88 1016.20 1016.48 1016.84 1017.12 1017.40 1017.60 1017.84 1018.08 1018.32 1018.56 1018.84 1019.12 1019.36 1019.64 1019.96 1020.20 1020.44 1020.64 1020.92 1021.20 1021.44 1021.64 1021.88 1022.16 1022.40 1022.56 1022.72 1022.88 1023.00 1023.12 1023.20 1023.28 1023.28 1023.32 1023.44 1023.56 1023.64 1023.68 1023.76 1023.76 1023.76 1023.88 1024.08 1024.32 1024.48 1024.72 1024.92 1025.16 1025.32 1025.52 1025.76 1025.88 1026.04 1026.08 1026.16 1026.20 1026.28 1026.32 1026.32 1026.32 1026.32 1026.36 1026.40 1026.44 1026.44 1026.44 1026.40
1015.72 1016.00 1016.28 1016.60 1016.96 1017.24 1017.48 1017.72 1017.96 1018.20 1018.48 1018.68 1018.92 1019.20 1019.52 1019.80 1020.12 1020.36 1020.60 1020.76 1021.04 1021.32 1021.60 1021.84 1022.04 1022.28 1022.48 1022.68 1022.88 1023.00 1023.08 1023.20 1023.32 1023.36 1023.40 1023.48 1023.56 1023.64 1023.72 1023.76 1023.80 1023.88 1023.88 1023.96 1024.20 1024.40 1024.60 1024.80 1025.04 1025.24 1025.44 1025.60 1025.84 1026.04 1026.20 1026.24 1026.32 1026.32 1026.36 1026.40 1026.40 1026.40 1026.40 1026.44 1026.48 1026.48 1026.48 1026.52 1026.48
1015.80 1016.08 1016.36 1016.68 1017.04 1017.32 1017.60 1017.84 1018.08 1018.32 1018.56 1018.84 1019.08 1019.36 1019.68 1019.96 1020.28 1020.52 1020.76 1020.96 1021.20 1021.44 1021.68 1021.88 1022.12 1022.36 1022.60 1022.76 1022.92 1023.04 1023.20 1023.32 1023.40 1023.44 1023.48 1023.56 1023.60 1023.68 1023.76 1023.84 1023.88 1023.88 1023.96 1024.08 1024.28 1024.48 1024.68 1024.92 1025.12 1025.32 1025.56 1025.76 1026.04 1026.24 1026.32 1026.32 1026.40 1026.44 1026.48 1026.52 1026.52 1026.52 1026.56 1026.56 1026.56 1026.60 1026.60 1026.60 1026.52
1015.88 1016.16 1016.44 1016.72 1017.04 1017.40 1017.68 1017.92 1018.20 1018.44 1018.72 1019.00 1019.28 1019.52 1019.80 1020.04 1020.36 1020.64 1020.92 1021.16 1021.32 1021.60 1021.80 1022.00 1022.20 1022.40 1022.60 1022.76 1022.92 1023.08 1023.24 1023.32 1023.48 1023.60 1023.68 1023.76 1023.76 1023.80 1023.88 1023.92 1024.00 1023.96 1024.00 1024.20 1024.32 1024.56 1024.76 1024.96 1025.20 1025.44 1025.68 1025.88 1026.16 1026.32 1026.44 1026.48 1026.52 1026.60 1026.60 1026.60 1026.60 1026.60 1026.60 1026.64 1026.64 1026.64 1026.64 1026.60 1026.52
1015.88 1016.20 1016.48 1016.80 1017.12 1017.44 1017.76 1018.04 1018.32 1018.56 1018.84 1019.16 1019.48 1019.72 1019.96 1020.20 1020.44 1020.68 1020.96 1021.20 1021.48 1021.76 1022.00 1022.20 1022.36 1022.56 1022.76 1022.92 1023.04 1023.20 1023.32 1023.48 1023.60 1023.72 1023.76 1023.80 1023.80 1023.88 1023.96 1024.04 1024.04 1024.04 1024.08 1024.32 1024.48 1024.64 1024.88 1025.08 1025.32 1025.56 1025.80 1026.08 1026.36 1026.48 1026.56 1026.56 1026.60 1026.68 1026.76 1026.72 1026.72 1026.72 1026.72 1026.68 1026.68 1026.68 1026.68 1026.60 1026.52
1015.80 1016.12 1016.48 1016.84 1017.20 1017.48 1017.76 1018.04 1018.32 1018.60 1018.92 1019.20 1019.56 1019.84 1020.08 1020.32 1020.56 1020.76 1020.96 1021.24 1021.60 1021.88 1022.12 1022.40 1022.56 1022.76 1022.92 1023.12 1023.24 1023.36 1023.48 1023.60 1023.72 1023.80 1023.88 1023.88 1023.88 1023.96 1024.04 1024.16 1024.20 1024.20 1024.24 1024.44 1024.60 1024.76 1025.00 1025.20 1025.48 1025.72 1025.96 1026.24 1026.48 1026.56 1026.60 1026.64 1026.72 1026.76 1026.84 1026.80 1026.84 1026.84 1026.84 1026.76 1026.76 1026.72 1026.68 1026.60 1026.52
1015.76 1016.04 1016.40 1016.76 1017.16 1017.48 1017.76 1018.08 1018.36 1018.68 1019.00 1019.32 1019.56 1019.84 1020.16 1020.44 1020.72 1020.92 1021.12 1021.28 1021.60 1021.88 1022.20 1022.48 1022.68 1022.88 1023.04 1023.20 1023.36 1023.56 1023.64 1023.68 1023.76 1023.84 1023.88 1023.92 1024.00 1024.04 1024.16 1024.28 1024.36 1024.40 1024.44 1024.56 1024.72 1024.92 1025.12 1025.32 1025.56 1025.80 1026.04 1026.32 1026.48 1026.60 1026.64 1026.76 1026.80 1026.88 1026.92 1026.96 1027.04 1027.00 1026.92 1026.88 1026.80 1026.76 1026.72 1026.56 1026.36
1015.80 1016.04 1016.32 1016.72 1017.12 1017.48 1017.76 1018.04 1018.36 1018.68 1019.00 1019.32 1019.60 1019.88 1020.16 1020.44 1020.76 1021.04 1021.20 1021.32 1021.60 1021.88 1022.20 1022.48 1022.76 1022.96 1023.16 1023.32 1023.48 1023.64 1023.76 1023.76 1023.80 1023.88 1023.96 1024.08 1024.16 1024.20 1024.28 1024.40 1024.52 1024.60 1024.60 1024.72 1024.88 1025.04 1025.24 1025.48 1025.68 1025.88 1026.16 1026.36 1026.52 1026.60 1026.72 1026.80 1026.88 1026.92 1027.00 1027.04 1027.08 1027.08 1027.04 1026.96 1026.92 1026.88 1026.80 1026.60 1026.24
1015.80 1016.04 1016.32 1016.68 1017.04 1017.44 1017.76 1018.08 1018.36 1018.64 1018.96 1019.32 1019.68 1019.96 1020.20 1020.48 1020.76 1021.04 1021.24 1021.44 1021.60 1021.88 1022.20 1022.52 1022.84 1023.04 1023.24 1023.40 1023.56 1023.76 1023.88 1023.96 1023.96 1023.96 1024.04 1024.20 1024.28 1024.32 1024.36 1024.56 1024.68 1024.76 1024.76 1024.84 1025.04 1025.20 1025.36 1025.56 1025.76 1026.00 1026.20 1026.36 1026.52 1026.60 1026.72 1026.84 1026.96 1027.04 1027.12 1027.16 1027.16 1027.20 1027.16 1027.08 1027.04 1026.96 1026.92 1026.80 1026.44
1015.80 1016.08 1016.36 1016.68 1017.04 1017.40 1017.76 1018.08 1018.36 1018.68 1018.96 1019.28 1019.60 1019.96 1020.24 1020.48 1020.76 1021.04 1021.32 1021.60 1021.84 1022.04 1022.32 1022.60 1022.92 1023.16 1023.32 1023.48 1023.64 1023.80 1023.96 1024.08 1024.16 1024.16 1024.20 1024.32 1024.32 1024.40 1024.52 1024.72 1024.84 1024.92 1024.92 1025.00 1025.16 1025.32 1025.48 1025.64 1025.84 1026.04 1026.24 1026.48 1026.60 1026.64 1026.72 1026.84 1027.00 1027.12 1027.20 1027.24 1027.24 1027.24 1027.20 1027.16 1027.08 1027.04 1026.96 1026.92 1026.68
1015.88 1016.16 1016.44 1016.76 1017.04 1017.36 1017.76 1018.08 1018.44 1018.76 1019.04 1019.32 1019.60 1019.88 1020.20 1020.48 1020.80 1021.12 1021.44 1021.76 1022.04 1022.28 1022.48 1022.76 1023.04 1023.24 1023.40 1023.56 1023.72 1023.88 1024.00 1024.20 1024.28 1024.32 1024.32 1024.36 1024.48 1024.56 1024.72 1024.88 1025.00 1025.08 1025.12 1025.20 1025.32 1025.40 1025.56 1025.76 1025.92 1026.12 1026.32 1026.52 1026.60 1026.68 1026.76 1026.84 1027.00 1027.20 1027.28 1027.32 1027.32 1027.32 1027.28 1027.24 1027.16 1027.04 1027.00 1026.92 1026.80
Wind_Speed
7 6 6 5 5 5 4 4 4 4 4 4 4 4 4 4 4 4 3 4 4 4 3 3 3 3 4 4 6 6 7 7 7 8 8 8 8 7 8 8 8 8 7 7 6 6 5 5 5 4 3 3 3 2 2 3 3 4 3 3 2 2 3 3 3 3 3 2 2
7 7 6 6 5 4 4 4 4 4 4 4 5 5 5 4 4 4 4 4 3 3 3 3 3 4 5 5 6 7 7 7 8 8 8 8 7 7 8 8 8 7 7 7 6 6 5 5 4 4 3 2 3 3 3 3 3 3 3 3 2 2 2 2 2 2 2 2 2
8 7 6 6 5 5 5 4 4 4 5 4 4 5 5 4 4 4 4 3 3 4 4 4 4 4 5 6 5 6 6 7 7 7 7 7 7 7 7 7 7 7 7 6 6 5 5 5 4 4 3 3 3 3 3 2 2 3 3 2 2 2 2 2 2 2 2 2 3
8 7 7 7 7 7 6 5 5 6 5 4 4 4 4 4 4 4 4 4 4 4 4 4 5 4 5 6 6 6 6 7 7 8 7 7 7 7 7 7 7 7 7 7 6 6 5 4 4 3 3 3 4 3 2 2 2 2 2 2 2 2 2 2 2 2 3 4 4
8 8 7 7 8 8 7 6 7 6 5 4 4 4 4 3 3 4 4 4 4 4 4 5 5 5 5 6 7 7 7 7 8 8 7 7 7 7 7 7 7 7 6 6 6 6 5 4 3 3 3 3 3 2 2 2 3 3 3 4 4 4 3 3 4 4 4 4 4
8 7 7 7 8 7 6 6 7 6 5 4 5 5 4 4 4 4 4 5 4 5 6 6 6 6 6 7 7 7 7 7 7 8 8 8 7 7 7 7 7 7 6 6 6 5 5 4 3 3 3 3 3 3 4 4 5 5 5 6 5 4 4 5 5 5 5 5 5
8 8 8 8 8 7 6 6 6 6 5 5 6 6 6 5 5 6 6 6 5 5 5 5 6 6 7 7 7 7 7 7 8 8 8 7 7 6 6 7 7 6 6 5 5 5 4 4 4 3 4 4 4 5 6 6 6 7 7 6 5 4 5 5 4 4 5 7 7
8 8 8 8 8 7 7 7 6 6 5 5 6 7 8 8 8 8 7 7 6 5 4 4 6 7 7 8 8 8 8 8 8 8 7 7 7 7 6 6 6 6 6 5 6 6 5 5 4 4 4 4 4 5 7 8 8 8 8 7 5 4 4 4 4 4 6 8 8
7 7 7 7 7 7 7 7 7 7 6 6 7 9 10 10 9 9 8 7 7 6 5 5 6 7 8 8 8 8 8 8 8 8 7 7 7 7 6 6 6 6 6 6 7 7 7 6 5 4 4 4 5 6 6 8 9 9 8 6 5 4 4 4 4 5 6 8 8
7 7 7 7 7 7 7 7 8 8 8 8 9 9 10 10 9 9 8 7 7 7 6 6 7 8 9 9 8 8 7 7 8 8 7 7 7 7 6 6 6 7 7 6 7 7 8 7 6 6 6 6 6 7 7 8 9 9 7 5 5 5 5 5 5 5 6 7 8
8 8 8 7 7 8 8 7 7 8 8 8 9 9 9 9 9 8 8 7 8 8 7 7 8 9 9 9 8 8 8 7 7 7 7 7 7 7 7 6 7 7 8 7 6 7 7 7 7 7 7 7 7 7 7 7 9 9 7 5 6 7 7 6 6 6 6 6 7
9 9 8 8 8 8 8 8 7 7 8 9 9 8 8 8 9 9 9 9 9 8 8 7 9 9 9 8 8 8 8 8 8 8 8 8 8 8 8 7 8 8 8 7 6 6 7 7 8 8 8 7 6 5 6 8 9 9 8 6 7 8 7 6 6 5 5 5 6
9 9 9 9 9 9 8 8 7 7 8 9 9 8 7 7 8 9 10 10 10 8 7 7 8 9 9 9 9 9 9 9 9 9 9 8 9 9 9 9 9 9 8 7 6 7 7 8 9 9 9 8 6 6 6 8 9 9 8 8 8 7 6 5 4 4 4 5 6
9 9 9 9 9 9 8 8 7 7 8 10 9 8 8 7 8 9 10 11 10 9 8 7 7 7 8 9 9 10 10 9 9 9 9 9 9 9 9 9 9 9 8 7 7 8 8 8 9 9 10 9 8 7 7 8 8 8 8 8 8 7 5 4 4 4 4 5 5
9 10 10 10 9 9 8 8 7 8 9 9 8 8 8 7 7 8 10 11 10 9 8 8 8 8 9 10 10 10 10 9 10 10 10 10 10 10 10 9 9 9 8 8 8 9 9 9 9 10 10 10 9 9 8 8 8 8 7 7 6 5 4 3 3 4 4 4 4
9 10 10 10 10 9 8 7 7 7 8 8 8 8 7 7 7 8 10 11 10 9 9 10 9 9 9 10 10 10 9 9 9 10 10 11 10 10 10 9 9 9 9 10 9 9 9 9 9 9 10 10 9 9 9 9 8 8 7 6 6 5 4 4 3 3 3 3 3
10 10 10 10 10 9 9 8 8 8 8 8 8 8 8 7 7 8 10 11 10 9 10 11 10 9 9 9 9 8 8 8 9 9 10 11 10 10 10 9 9 9 9 10 10 10 9 8 8 9 9 10 9 9 9 9 8 8 7 7 6 5 5 4 4 3 3 3 3
10 10 10 10 10 10 10 10 10 9 9 9 9 8 8 7 7 8 9 11 11 11 11 11 10 9 9 9 8 8 8 8 9 9 10 10 10 10 10 9 9 9 9 10 10 10 9 9 8 9 9 9 9 9 9 8 8 8 7 7 6 6 5 5 4 4 4 4 3
10 10 11 11 11 11 12 12 11 11 10 10 10 9 9 8 9 9 10 11 11 12 12 12 10 10 10 10 9 9 9 9 10 10 10 10 10 10 10 9 9 9 9 10 10 10 9 9 9 9 9 9 9 8 8 8 7 7 7 7 6 6 5 5 4 4 4 4 3
11 11 11 12 12 12 12 12 12 12 11 10 11 11 10 9 10 10 11 11 11 12 12 12 11 11 11 11 11 10 10 9 10 10 10 9 9 10 10 10 9 9 9 9 9 9 9 9 9 9 10 10 9 8 8 7 7 7 6 6 6 5 5 5 5 5 4 4 4
11 11 12 13 13 13 12 12 12 12 12 12 12 12 11 10 11 11 11 12 12 12 12 12 12 12 12 12 12 11 10 9 10 10 10 10 9 9 9 9 9 9 9 8 9 9 9 9 9 9 9 9 9 8 7 7 7 7 6 6 5 5 5 5 6 6 6 5 5
11 11 12 13 13 13 12 12 12 12 12 12 12 12 12 12 11 11 12 12 12 12 12 12 12 12 12 12 12 11 11 9 10 10 10 9 9 8 8 9 9 9 9 9 9 9 9 9 9 9 8 8 8 7 7 7 7 6 6 6 6 6 6 6 6 7 7 6 6
11 12 12 13 13 13 13 12 12 13 13 12 12 12 12 12 12 12 12 12 12 12 12 11 11 11 12 12 12 12 12 11 10 9 9 9 8 8 8 8 9 9 9 8 8 8 8 8 8 8 8 8 7 7 7 7 6 6 6 7 7 7 7 7 7 7 7 7 6
12 12 12 12 13 13 13 13 13 13 13 13 13 13 13 12 12 12 12 12 12 12 12 10 10 11 11 11 11 12 12 13 12 10 9 8 8 8 8 8 9 9 8 7 8 9 8 7 7 7 7 7 7 6 6 6 6 6 6 7 7 7 7 7 7 7 7 7 7
13 13 13 13 13 13 13 13 13 13 13 13 13 13 13 12 13 13 13 13 13 13 12 12 11 11 11 10 11 11 11 12 12 11 10 9 8 8 8 7 7 7 7 8 12 14 13 10 8 7 6 6 6 6 6 6 6 6 6 6 6 6 7 7 7 7 7 7 6
13 13 14 13 14 14 14 14 14 13 13 13 13 13 13 12 13 13 14 14 13 13 13 12 12 11 10 10 10 10 10 10 10 10 10 9 8 7 7 7 6 5 6 11 15 16 16 15 13 10 7 6 6 6 6 5 6 6 6 6 6 6 7 7 7 7 6 6 6
13 14 14 14 14 14 13 13 13 13 13 13 13 13 12 12 13 14 14 14 14 13 12 11 11 11 10 9 10 10 9 8 8 8 9 9 9 8 7 6 5 5 7 13 16 17 17 17 15 13 10 7 6 6 6 5 6 6 6 6 6 6 6 6 6 6 6 6 5
14 14 14 14 14 13 13 13 13 13 13 13 13 13 12 13 14 14 14 14 13 12 11 10 9 9 8 8 9 9 9 8 7 7 7 8 8 7 6 5 5 7 10 16 17 17 17 17 16 15 12 9 7 6 5 5 5 5 5 5 6 6 6 6 5 5 5 5 5
14 14 14 14 14 13 13 13 13 13 13 13 13 13 13 13 14 14 14 14 13 12 10 8 7 7 7 7 8 8 8 7 6 6 6 7 7 6 5 5 5 8 13 17 17 17 16 17 16 16 14 11 7 5 5 5 5 5 5 5 5 5 5 5 5 5 5 5 5
14 14 14 14 14 13 13 13 13 13 13 12 13 13 14 14 14 14 14 13 12 10 9 8 8 8 8 9 8 7 7 6 6 6 7 7 6 5 5 4 5 8 13 17 16 16 16 16 16 16 15 13 9 6 5 5 5 5 5 5 5 5 5 5 5 5 5 4 5
14 14 15 15 14 13 13 13 13 13 13 12 13 14 14 14 13 13 12 11 10 10 10 9 10 10 10 9 8 7 7 6 6 6 6 7 7 6 5 4 5 8 12 16 16 16 16 16 16 16 16 14 10 6 5 5 5 5 4 4 5 5 5 5 5 5 4 4 4
14 14 15 15 14 13 13 13 13 13 13 14 14 14 13 13 12 11 10 10 11 11 11 10 11 11 10 9 7 7 7 7 6 6 6 7 6 6 5 5 5 8 12 16 16 16 16 16 16 16 16 14 10 7 5 5 5 5 5 5 5 5 4 4 4 4 4 3 3
14 14 15 15 14 14 13 13 13 13 13 13 13 13 13 12 11 10 10 10 11 12 12 12 12 12 11 9 8 8 7 7 7 7 6 6 6 5 5 5 5 8 13 16 16 16 16 16 17 17 16 14 10 7 5 5 5 5 5 5 4 4 4 4 3 3 2 2 2
15 15 15 15 15 14 13 13 13 13 13 13 13 13 13 13 12 12 11 10 9 10 10 10 11 10 9 9 9 8 8 7 6 5 5 5 5 5 5 3 4 9 14 16 16 16 16 16 17 17 16 14 9 7 6 6 5 5 5 5 5 4 4 3 3 2 1 1 1
15 15 15 15 15 14 14 14 13 13 14 13 13 13 12 13 13 12 12 11 10 9 8 8 8 8 8 7 7 7 7 7 6 5 5 5 5 5 5 3 4 9 14 16 15 15 16 17 17 17 15 12 8 6 6 6 6 6 6 6 5 5 5 4 3 2 2 2 1
16 16 16 16 15 15 15 14 14 14 14 14 14 13 12 12 11 11 12 13 12 10 9 9 8 8 7 7 6 6 6 7 6 6 5 5 6 5 5 4 4 9 14 15 15 15 16 17 17 16 14 10 6 5 5 6 5 6 6 6 6 5 5 5 4 4 3 3 2
16 17 17 17 16 15 15 15 15 15 14 14 14 14 13 12 11 11 11 12 12 12 11 10 9 9 8 7 6 6 5 6 6 7 7 6 6 6 5 5 5 8 12 15 15 15 16 16 17 15 12 8 6 5 5 5 5 5 5 6 5 4 4 4 4 5 5 4 2
16 17 17 17 17 16 15 15 15 15 15 14 13 13 13 13 11 10 11 12 12 12 12 10 9 9 8 8 7 7 6 6 7 7 7 7 6 6 6 5 5 7 10 13 14 15 15 16 16 14 11 7 6 5 5 4 4 4 5 4 4 3 3 3 4 4 5 6 6
16 16 17 17 17 16 16 16 16 16 15 15 13 13 12 11 10 10 10 11 11 11 12 10 10 9 9 9 8 7 6 6 7 7 7 6 7 7 7 6 5 6 9 13 14 14 15 15 15 14 12 8 6 5 5 5 4 4 4 4 3 3 3 3 3 3 4 5 8
15 16 16 17 17 17 16 16 15 15 15 15 14 14 13 11 10 10 10 10 10 10 11 11 11 10 10 10 9 8 7 6 6 6 7 7 8 8 8 5 5 6 9 12 13 14 14 15 15 14 12 8 6 5 5 5 5 5 4 4 3 3 3 3 3 3 3 4 7
15 15 16 16 16 16 16 16 15 14 14 14 15 14 13 12 11 10 10 10 10 10 10 10 11 11 10 10 9 9 8 7 6 6 6 7 8 8 8 5 5 6 7 10 12 13 14 15 15 14 12 8 5 5 5 5 5 5 4 3 3 3 3 3 3 3 4 4 5
Wind_Direction
172 172 171 169 169 169 171 171 165 160 158 158 158 159 158 156 159 161 161 158 157 152 147 140 131 123 119 120 117 115 112 110 107 105 104 105 107 107 107 105 106 108 111 113 112 108 104 102 102 101 102 106 107 99 85 77 86 87 86 84 82 78 73 68 63 62 64 68 79
172 170 167 163 161 160 161 163 162 161 162 163 161 160 160 161 161 160 159 159 152 142 133 124 118 118 120 121 118 116 114 112 108 105 103 104 106 106 106 105 107 110 113 112 108 104 102 103 103 104 105 104 95 84 74 71 86 92 92 90 92 92 89 87 90 92 90 83 68
170 167 162 158 156 157 160 163 165 166 167 167 162 159 160 162 159 155 152 149 137 129 124 121 118 117 117 116 111 111 111 112 109 106 104 104 103 103 104 106 108 108 107 104 101 101 102 104 106 108 109 105 96 90 85 79 89 96 99 102 102 102 102 103 101 94 86 70 46
166 164 161 158 158 160 163 165 167 170 170 166 156 153 153 156 147 139 131 125 120 122 125 126 122 118 115 112 107 105 104 106 105 104 102 100 100 101 103 106 104 101 99 98 99 101 102 103 106 109 110 108 105 105 106 105 95 90 84 73 46 38 42 50 47 50 53 54 44
167 166 165 162 163 164 164 162 165 168 167 158 149 146 144 137 124 118 117 119 120 124 125 123 120 117 113 111 108 104 100 98 99 99 98 97 98 100 102 102 101 100 99 100 103 106 106 104 102 98 94 90 85 81 80 88 78 70 61 52 41 35 32 34 37 42 49 54 50
168 167 165 163 164 163 161 159 162 161 159 150 143 139 133 123 116 117 120 121 119 118 116 115 116 116 114 111 107 103 98 94 94 96 97 98 99 100 101 101 102 103 104 105 106 103 100 93 86 76 67 62 51 43 45 60 68 69 65 58 49 46 49 53 55 57 58 59 56
165 164 163 163 162 160 157 155 155 151 147 141 138 135 130 122 122 123 123 121 117 114 114 115 118 119 117 112 107 103 100 97 97 98 101 103 104 104 104 104 104 104 103 101 96 87 77 71 73 71 67 68 63 56 58 69 75 75 71 65 55 51 52 54 58 63 64 63 59
160 160 161 161 161 157 153 150 147 144 142 141 138 133 129 126 126 125 123 120 118 117 116 116 120 120 117 113 109 107 106 105 105 105 107 109 108 107 104 102 98 93 88 83 81 78 74 72 74 74 74 74 73 69 68 73 79 79 77 71 64 58 59 62 63 67 69 68 64
157 158 157 156 156 153 149 145 143 142 141 141 137 133 131 131 131 129 126 124 123 121 118 117 117 116 113 111 111 110 110 111 111 112 112 112 110 106 100 93 86 81 78 78 83 85 84 81 77 74 74 78 80 78 76 77 81 81 80 77 72 65 61 63 64 67 69 70 67
156 155 154 152 151 148 143 141 140 139 137 136 134 133 133 134 134 133 131 129 125 123 122 121 119 115 112 110 110 110 110 111 113 113 112 109 105 101 95 89 88 88 88 88 91 90 89 87 81 77 75 77 80 80 80 80 82 82 81 81 78 71 64 58 60 63 66 69 69
156 155 153 152 150 146 141 139 138 135 133 131 130 130 132 133 133 132 129 125 122 122 122 124 121 118 114 111 111 110 109 108 107 104 100 94 91 89 89 89 92 94 94 93 92 91 89 89 86 82 78 77 80 80 80 81 83 83 82 80 78 73 67 56 56 60 66 71 71
156 154 152 150 148 144 141 140 138 134 129 126 125 125 127 129 130 127 122 117 116 116 118 120 119 118 116 114 113 110 107 104 101 98 94 91 88 87 86 86 87 88 88 87 86 87 89 90 90 86 82 76 77 78 79 81 83 83 82 77 75 74 70 63 61 63 69 73 71
155 153 150 147 144 142 141 140 136 131 126 123 122 121 122 124 125 122 118 114 113 113 113 113 113 114 114 115 114 112 110 107 104 102 100 97 94 91 88 86 85 84 82 80 82 86 90 91 91 89 85 79 76 75 77 80 83 84 83 80 78 78 78 74 71 70 70 69 68
153 150 148 145 144 142 139 137 132 126 123 121 121 121 121 122 123 121 117 114 113 112 110 107 103 104 108 112 113 112 111 109 107 104 101 97 95 93 90 88 87 85 83 81 82 85 89 91 92 91 89 85 81 77 75 77 81 83 85 85 85 85 84 81 75 71 69 67 64
152 149 147 146 145 142 137 131 125 120 119 121 122 121 121 122 123 120 117 114 113 112 109 105 101 100 101 105 106 106 106 106 106 104 100 97 94 93 92 91 89 88 88 86 84 84 87 91 92 93 93 91 86 81 77 76 77 79 81 84 86 86 82 73 64 61 63 66 62
150 148 147 146 144 139 132 125 119 118 119 121 121 120 120 121 122 120 118 116 114 112 110 109 106 104 101 99 99 100 101 102 102 101 99 97 94 93 93 93 92 92 92 91 88 86 86 88 91 93 93 93 89 84 80 77 76 76 75 76 76 75 70 62 56 53 53 55 55
148 148 147 145 139 133 126 121 119 119 121 121 120 119 118 121 123 122 120 119 117 115 112 111 109 107 104 101 98 97 96 96 96 96 97 98 98 97 95 95 95 96 96 95 94 92 89 88 89 90 91 90 88 85 83 80 79 76 74 71 69 67 64 60 58 56 53 50 48
147 146 144 139 132 127 124 122 122 123 123 122 120 119 119 121 123 122 120 119 118 116 114 110 107 104 103 102 97 94 92 92 93 95 97 99 100 100 99 98 97 97 97 98 98 97 96 93 90 88 87 87 86 85 85 83 81 79 76 73 69 66 64 61 60 61 60 57 50
146 143 138 131 128 126 125 125 125 126 125 124 121 119 118 120 121 120 117 114 114 114 113 111 106 103 101 100 97 94 92 93 94 95 96 98 99 100 101 100 99 98 98 99 99 99 98 95 92 91 89 89 87 85 84 83 81 78 75 72 68 65 63 61 60 60 61 61 54
143 140 135 129 127 127 127 127 127 127 125 122 120 118 118 118 117 115 113 112 111 111 111 111 108 105 101 99 98 97 96 96 97 98 98 97 98 101 103 104 102 100 99 99 99 98 97 95 93 93 92 91 89 87 84 81 79 76 73 70 66 63 61 60 58 55 53 53 50
140 137 133 129 128 128 128 127 126 124 122 120 118 118 117 116 113 112 112 113 112 110 108 108 107 106 105 103 102 101 101 100 100 101 101 100 100 102 105 106 105 102 100 98 98 97 96 95 94 94 93 92 90 89 86 83 78 74 70 67 62 58 56 54 53 50 47 43 41
136 133 130 128 128 127 127 125 123 121 120 118 118 117 116 115 113 112 111 111 109 107 105 103 104 106 108 108 107 107 106 104 101 101 102 102 103 104 106 107 106 104 101 99 98 97 95 93 93 93 92 91 90 89 87 85 81 76 71 66 60 55 51 49 48 46 43 37 33
131 129 128 126 126 125 124 123 121 120 119 118 118 117 116 115 113 111 108 107 106 104 103 101 102 104 106 108 110 110 110 107 103 100 100 102 104 106 107 107 106 105 104 104 103 101 98 94 91 91 91 92 90 88 87 86 84 80 75 68 63 57 52 48 47 45 40 34 28
129 128 127 125 124 124 124 123 121 120 120 121 120 119 117 115 113 110 107 105 105 105 104 103 103 103 105 106 108 110 111 110 108 105 102 103 106 108 109 108 108 109 110 112 113 111 108 102 97 94 92 92 90 88 85 84 83 82 79 75 69 63 56 50 47 45 41 34 26
128 126 125 125 126 126 125 124 124 123 123 123 122 120 118 116 114 111 108 105 105 105 106 106 106 106 105 105 106 107 109 111 112 112 110 108 109 110 112 112 114 116 119 121 119 117 113 111 108 104 98 95 92 88 84 80 81 81 81 80 77 71 63 54 48 44 40 35 28
127 126 126 127 127 127 126 126 126 125 125 124 122 121 119 118 115 113 110 109 108 109 109 110 110 109 108 107 106 105 106 108 112 114 116 115 114 114 114 117 121 123 125 125 122 119 116 114 112 110 106 100 96 92 87 81 80 80 80 79 78 76 70 62 52 45 39 35 29
127 127 128 128 127 127 127 127 127 126 125 125 124 122 121 119 117 115 113 113 113 112 111 111 111 111 110 107 106 106 107 108 109 112 115 118 118 118 119 122 127 130 129 127 124 121 118 116 114 111 108 102 99 98 96 91 85 82 80 78 77 77 75 71 61 50 42 34 29
129 129 128 127 127 127 128 128 127 127 127 127 125 124 121 119 118 118 118 118 117 116 113 112 112 112 109 106 107 108 109 110 110 110 111 112 114 117 121 126 133 134 131 129 125 123 120 117 115 112 109 106 103 101 100 98 92 87 83 81 79 78 76 73 66 57 48 38 31
131 130 129 128 128 129 129 129 130 129 128 127 124 123 121 120 121 121 121 121 121 120 119 118 116 112 110 110 110 109 108 108 110 110 108 106 106 108 114 123 130 131 130 128 126 123 121 119 116 114 112 110 107 104 102 100 96 92 88 85 83 81 78 73 66 58 51 43 36
132 131 130 130 130 131 131 132 131 130 128 126 124 123 123 122 123 123 124 124 123 123 123 122 119 116 115 116 114 112 109 109 109 108 107 106 106 106 109 115 122 127 128 128 126 124 122 120 117 115 114 112 109 106 103 101 99 96 93 90 86 84 80 75 67 59 52 44 38
134 133 132 131 131 132 132 132 130 129 128 127 126 126 125 125 125 126 126 125 123 121 120 118 117 117 118 118 116 114 113 110 107 106 106 107 107 107 107 110 117 124 126 127 126 124 123 121 119 117 116 115 111 108 103 101 98 96 94 91 87 83 80 76 70 62 54 46 41
135 134 133 132 132 132 132 131 130 129 129 128 128 127 126 126 126 125 124 122 121 120 119 118 119 119 118 117 116 115 114 111 110 108 108 108 108 107 107 108 116 123 126 127 126 125 124 123 121 119 117 115 110 105 99 98 95 91 87 83 80 77 74 72 67 61 55 49 45
136 135 134 133 133 133 132 132 131 130 129 128 128 127 126 125 123 121 120 121 122 123 124 125 124 124 124 123 121 119 116 113 111 109 106 106 107 107 107 109 117 126 128 128 127 126 125 124 122 120 117 114 108 102 96 94 91 86 80 72 67 65 64 62 59 54 46 38 39
138 136 135 134 134 134 134 133 132 130 129 128 128 128 127 126 125 124 124 125 125 125 125 125 126 126 127 126 125 123 120 116 111 107 104 103 103 104 106 111 121 129 130 128 127 126 126 125 123 120 117 112 106 100 95 92 89 83 78 70 62 56 53 51 45 34 11 343 352
140 138 137 136 136 136 135 134 133 131 130 129 129 129 129 129 129 129 129 129 126 123 121 121 121 120 120 120 119 119 118 116 112 108 106 104 102 102 104 109 119 129 130 127 127 127 126 125 123 120 116 110 106 100 96 92 88 83 77 70 60 50 44 39 30 14 346 313 309
143 141 139 139 138 138 137 136 135 134 133 132 132 132 131 130 130 130 130 129 126 123 122 121 120 119 118 117 116 116 117 119 115 111 107 103 102 101 102 104 111 125 129 127 127 127 127 126 124 120 116 111 106 101 97 93 89 82 75 68 58 47 38 31 22 9 352 327 302
145 143 141 140 140 140 140 139 138 137 136 136 135 135 134 132 131 131 131 130 127 126 126 126 125 125 124 123 121 120 119 120 115 110 105 101 101 102 102 100 105 121 126 127 128 128 128 128 125 122 118 112 109 103 99 93 89 81 74 68 58 45 33 26 19 9 359 345 349
147 145 143 142 142 142 142 141 140 139 139 138 137 136 135 133 132 133 133 133 131 130 130 129 128 128 127 125 122 118 115 113 111 109 105 100 101 102 103 102 104 116 124 128 129 130 130 129 127 124 121 116 114 109 104 97 91 84 78 72 61 45 30 20 17 9 2 356 14
149 147 145 144 144 144 144 143 142 141 140 139 137 136 135 134 134 135 135 134 132 131 131 130 130 129 128 125 121 116 110 105 105 106 106 104 105 105 105 103 106 115 123 128 130 131 132 131 128 125 122 118 117 113 109 103 96 89 82 76 65 49 30 17 15 9 1 356 4
149 148 146 145 145 145 145 144 143 142 141 139 138 138 137 136 135 133 131 129 128 128 128 129 130 129 128 126 121 116 110 103 100 102 105 107 107 106 106 103 106 114 121 127 130 132 133 132 128 125 122 116 116 115 112 108 100 93 85 78 72 59 39 18 12 8 2 353 356
148 148 147 146 146 146 145 144 143 141 140 139 139 139 137 135 132 130 129 127 127 127 127 127 129 129 128 126 122 118 112 105 99 97 98 101 102 104 105 102 105 110 118 126 130 132 133 132 128 126 123 119 117 116 114 110 104 99 93 87 81 72 57 32 19 11 5 358 353